Home > Weather > Khabarovsk > Past weeks

Flag for Russia Past Weather in Khabarovsk, Russia — Yesterday and Last 2 Weeks

Now
73 °F

Passing clouds.


Feels Like: 76 °F
Forecast: 62 / 69 °F
Wind: 6 mph from West

Location: Habarovsk

Current Time: Jul 2, 2016 at 12:17:38 PM

Latest Report: Jul 2, 2016 at 11:30 AM


Visibility: N/A

Pressure: 29.65 "Hg

Humidity: 65%

Dew Point: 61 °F

Location of KhabarovskLocation

Past Weather in Khabarovsk — Graph

°F

Khabarovsk Temperature Yesterday

Maximum temperature yesterday: 77 °F (at 5:00 PM)
Minimum temperature yesterday: 63 °F (at 5:00 AM)
Average temperature yesterday: 70 °F

High & Low Weather Summary for the Past Weeks

 TemperatureHumidityPressure
High86 °F (Jun 29, 2:30 PM)100% (Jun 18, 5:30 AM)29.83 "Hg (Jun 18, 5:30 AM)
Low52 °F (Jun 26, 4:00 AM)44% (Jun 27, 12:00 PM)29.53 "Hg (Jun 25, 3:00 PM)
Average69 °F76%29.70 "Hg
* Reported Jun 17 11:00 AM — Jul 2 11:00 AM, Khabarovsk, Weather by CustomWeather, © 2016

Note: Actual official high and low records may vary slightly from our data, if they occured in-between our weather recording intervals... More about our weather records

Advertising

Khabarovsk Weather History for the Previous 24 Hours

Scroll right to see more
 ConditionsComfort  
Time TempWeatherWind HumidityBarometerVisibility
11:00 AM
Sat, Jul 2
72 °FPassing clouds.6 mph69%29.65 "HgN/A
10:30 AM72 °FPassing clouds.8 mph65%29.65 "HgN/A
10:00 AM70 °FPassing clouds.8 mph69%29.65 "HgN/A
9:30 AM70 °FPassing clouds.8 mph69%29.65 "HgN/A
9:00 AM68 °FScattered clouds.8 mph78%29.65 "HgN/A
8:30 AM66 °FScattered clouds.6 mph83%29.65 "HgN/A
8:00 AM66 °FScattered clouds.6 mph83%29.65 "HgN/A
7:30 AM66 °FScattered clouds.8 mph83%29.65 "HgN/A
7:00 AM64 °FPassing clouds.6 mph88%29.65 "HgN/A
6:30 AM63 °FScattered clouds.6 mph94%29.65 "HgN/A
6:00 AM63 °FPassing clouds.3 mph88%29.62 "HgN/A
5:30 AM61 °FPassing clouds.3 mph94%29.62 "HgN/A
5:00 AM61 °FPassing clouds.6 mph94%29.62 "HgN/A
4:30 AM63 °FPassing clouds.8 mph94%29.62 "HgN/A
4:00 AM64 °FPassing clouds.3 mph94%29.62 "HgN/A
3:30 AM64 °FPassing clouds.3 mph94%29.62 "HgN/A
3:00 AM64 °FPassing clouds.6 mph94%29.62 "HgN/A
2:30 AM66 °FPassing clouds.8 mph94%29.62 "HgN/A
2:00 AM66 °FPassing clouds.6 mph94%29.62 "HgN/A
1:30 AM66 °FPassing clouds.3 mph94%29.62 "HgN/A
1:00 AM66 °FPassing clouds.1 mph100%29.62 "HgN/A
12:30 AM66 °FPassing clouds.3 mph100%29.62 "HgN/A
12:00 AM66 °FPassing clouds.3 mph100%29.62 "HgN/A
11:30 PM
Fri, Jul 1
66 °FPassing clouds.3 mph100%29.62 "HgN/A
11:00 PM68 °FPassing clouds.3 mph94%29.62 "HgN/A
10:30 PM68 °FPassing clouds.1 mph94%29.62 "HgN/A
10:00 PM70 °FSprinkles. Passing clouds.3 mph88%29.62 "HgN/A
9:30 PM72 °FSprinkles. Passing clouds.8 mph83%29.62 "HgN/A
9:00 PM72 °FScattered clouds.1 mph78%29.62 "HgN/A
8:30 PM73 °FScattered clouds.No wind78%29.59 "HgN/A
8:00 PM73 °FPassing clouds.1 mph74%29.59 "HgN/A
7:30 PM75 °FScattered clouds.3 mph69%29.59 "HgN/A
7:00 PM77 °FScattered clouds.3 mph65%29.59 "HgN/A
6:30 PM75 °FScattered clouds.3 mph74%29.59 "HgN/A
6:00 PM75 °FScattered clouds.3 mph69%29.62 "HgN/A
5:30 PM75 °FScattered clouds.6 mph69%29.59 "HgN/A
5:00 PM77 °FScattered clouds.3 mph69%29.59 "HgN/A
4:30 PM75 °FScattered clouds.3 mph74%29.62 "HgN/A
4:00 PM75 °FPassing clouds.6 mph69%29.62 "HgN/A
3:30 PM73 °FPassing clouds.1 mph78%29.62 "HgN/A
3:00 PM72 °FPassing clouds.3 mph88%29.62 "HgN/A
2:30 PM70 °FScattered clouds.1 mph94%29.65 "HgN/A
2:00 PM70 °FSprinkles. Scattered clouds.6 mph88%29.65 "HgN/A
1:30 PM73 °FScattered clouds.6 mph74%29.65 "HgN/A
1:00 PM75 °FScattered clouds.6 mph69%29.65 "HgN/A
12:30 PM75 °FScattered clouds.6 mph69%29.65 "HgN/A
12:00 PM73 °FScattered clouds.3 mph74%29.65 "HgN/A
Weather by CustomWeather, © 2016

See weather overviewHow to use our weather pages